Year,Month,Day,Hour,Minute,Value (Times are PST for temperature in C)
2015,06,29,00,00,16.90
2015,06,29,00,01,16.90
2015,06,29,00,02,16.90
2015,06,29,00,03,16.90
2015,06,29,00,04,16.80
2015,06,29,00,05,16.80
2015,06,29,00,06,16.80
2015,06,29,00,07,16.80
2015,06,29,00,08,16.80
2015,06,29,00,09,16.80
2015,06,29,00,10,16.80
2015,06,29,00,11,16.80
2015,06,29,00,12,16.80
2015,06,29,00,13,16.70
2015,06,29,00,14,16.70
2015,06,29,00,15,16.70
2015,06,29,00,16,16.70
2015,06,29,00,17,16.70
2015,06,29,00,18,16.70
2015,06,29,00,19,16.70
2015,06,29,00,20,16.70
2015,06,29,00,21,16.70
2015,06,29,00,22,16.70
2015,06,29,00,23,16.70
2015,06,29,00,24,16.70
2015,06,29,00,25,16.60
2015,06,29,00,26,16.60
2015,06,29,00,27,16.60
2015,06,29,00,28,16.60
2015,06,29,00,29,16.60
2015,06,29,00,30,16.70
2015,06,29,00,31,16.70
2015,06,29,00,32,16.70
2015,06,29,00,33,16.70
2015,06,29,00,34,16.70
2015,06,29,00,35,16.60
2015,06,29,00,36,16.60
2015,06,29,00,37,16.60
2015,06,29,00,38,16.60
2015,06,29,00,39,16.60
2015,06,29,00,40,16.60
2015,06,29,00,41,16.60
2015,06,29,00,42,16.50
2015,06,29,00,43,16.50
2015,06,29,00,44,16.50
2015,06,29,00,45,16.40
2015,06,29,00,46,16.40
2015,06,29,00,47,16.40
2015,06,29,00,48,16.40
2015,06,29,00,49,16.30
2015,06,29,00,50,16.30
2015,06,29,00,51,16.30
2015,06,29,00,52,16.30
2015,06,29,00,53,16.30
2015,06,29,00,54,16.30
2015,06,29,00,55,16.30
2015,06,29,00,56,16.30
2015,06,29,00,57,16.30
2015,06,29,00,58,16.30
2015,06,29,00,59,16.30
2015,06,29,01,00,16.30
2015,06,29,01,01,16.30
2015,06,29,01,02,16.30
2015,06,29,01,03,16.40
2015,06,29,01,04,16.40
2015,06,29,01,05,16.40
2015,06,29,01,06,16.40
2015,06,29,01,07,16.40
2015,06,29,01,08,16.40
2015,06,29,01,09,16.40
2015,06,29,01,10,16.40
2015,06,29,01,11,16.40
2015,06,29,01,12,16.30
2015,06,29,01,13,16.30
2015,06,29,01,14,16.30
2015,06,29,01,15,16.20
2015,06,29,01,16,16.20
2015,06,29,01,17,16.20
2015,06,29,01,18,16.20
2015,06,29,01,19,16.20
2015,06,29,01,20,16.20
2015,06,29,01,21,16.10
2015,06,29,01,22,16.10
2015,06,29,01,23,16.10
2015,06,29,01,24,16.10
2015,06,29,01,25,16.00
2015,06,29,01,26,16.00
2015,06,29,01,27,16.00
2015,06,29,01,28,15.90
2015,06,29,01,29,15.90
2015,06,29,01,30,15.90
2015,06,29,01,31,15.90
2015,06,29,01,32,15.90
2015,06,29,01,33,15.90
2015,06,29,01,34,15.90
2015,06,29,01,35,15.90
2015,06,29,01,36,15.90
2015,06,29,01,37,15.90
2015,06,29,01,38,15.90
2015,06,29,01,39,15.90
2015,06,29,01,40,15.90
2015,06,29,01,41,15.80
2015,06,29,01,42,15.80
2015,06,29,01,43,15.80
2015,06,29,01,44,15.80
2015,06,29,01,45,15.80
2015,06,29,01,46,15.70
2015,06,29,01,47,15.70
2015,06,29,01,48,15.70
2015,06,29,01,49,15.70
2015,06,29,01,50,15.70
2015,06,29,01,51,15.70
2015,06,29,01,52,15.60
2015,06,29,01,53,15.60
2015,06,29,01,54,15.60
2015,06,29,01,55,15.60
2015,06,29,01,56,15.50
2015,06,29,01,57,15.50
2015,06,29,01,58,15.50
2015,06,29,01,59,15.50
2015,06,29,02,00,15.40
2015,06,29,02,01,15.40
2015,06,29,02,02,15.40
2015,06,29,02,03,15.40
2015,06,29,02,04,15.40
2015,06,29,02,05,15.30
2015,06,29,02,06,15.30
2015,06,29,02,07,15.30
2015,06,29,02,08,15.30
2015,06,29,02,09,15.30
2015,06,29,02,10,15.20
2015,06,29,02,11,15.20
2015,06,29,02,12,15.20
2015,06,29,02,13,15.20
2015,06,29,02,14,15.10
2015,06,29,02,15,15.10
2015,06,29,02,16,15.10
2015,06,29,02,17,15.10
2015,06,29,02,18,15.00
2015,06,29,02,19,15.00
2015,06,29,02,20,15.00
2015,06,29,02,21,15.00
2015,06,29,02,22,15.00
2015,06,29,02,23,14.90
2015,06,29,02,24,14.90
2015,06,29,02,25,14.90
2015,06,29,02,26,14.90
2015,06,29,02,27,14.90
2015,06,29,02,28,14.90
2015,06,29,02,29,14.90
2015,06,29,02,30,14.80
2015,06,29,02,31,14.80
2015,06,29,02,32,14.80
2015,06,29,02,33,14.80
2015,06,29,02,34,14.80
2015,06,29,02,35,14.80
2015,06,29,02,36,14.80
2015,06,29,02,37,14.70
2015,06,29,02,38,14.70
2015,06,29,02,39,14.70
2015,06,29,02,40,14.70
2015,06,29,02,41,14.70
2015,06,29,02,42,14.70
2015,06,29,02,43,14.70
2015,06,29,02,44,14.70
2015,06,29,02,45,14.70
2015,06,29,02,46,14.70
2015,06,29,02,47,14.70
2015,06,29,02,48,14.70
2015,06,29,02,49,14.70
2015,06,29,02,50,14.70
2015,06,29,02,51,14.70
2015,06,29,02,52,14.70
2015,06,29,02,53,14.70
2015,06,29,02,54,14.70
2015,06,29,02,55,14.70
2015,06,29,02,56,14.70
2015,06,29,02,57,14.70
2015,06,29,02,58,14.60
2015,06,29,02,59,14.60
2015,06,29,03,00,14.60
2015,06,29,03,01,14.60
2015,06,29,03,02,14.60
2015,06,29,03,03,14.60
2015,06,29,03,04,14.60
2015,06,29,03,05,14.60
2015,06,29,03,06,14.60
2015,06,29,03,07,14.60
2015,06,29,03,08,14.60
2015,06,29,03,09,14.60
2015,06,29,03,10,14.60
2015,06,29,03,11,14.60
2015,06,29,03,12,14.60
2015,06,29,03,13,14.60
2015,06,29,03,14,14.70
2015,06,29,03,15,14.70
2015,06,29,03,16,14.70
2015,06,29,03,17,14.70
2015,06,29,03,18,14.70
2015,06,29,03,19,14.70
2015,06,29,03,20,14.70
2015,06,29,03,21,14.70
2015,06,29,03,22,14.80
2015,06,29,03,23,14.80
2015,06,29,03,24,14.80
2015,06,29,03,25,14.80
2015,06,29,03,26,14.80
2015,06,29,03,27,14.80
2015,06,29,03,28,14.80
2015,06,29,03,29,14.80
2015,06,29,03,30,14.80
2015,06,29,03,31,14.80
2015,06,29,03,32,14.80
2015,06,29,03,33,14.80
2015,06,29,03,34,14.80
2015,06,29,03,35,14.80
2015,06,29,03,36,14.80
2015,06,29,03,37,14.80
2015,06,29,03,38,14.80
2015,06,29,03,39,14.80
2015,06,29,03,40,14.80
2015,06,29,03,41,14.80
2015,06,29,03,42,14.80
2015,06,29,03,43,14.80
2015,06,29,03,44,14.90
2015,06,29,03,45,14.90
2015,06,29,03,46,14.90
2015,06,29,03,47,14.90
2015,06,29,03,48,14.90
2015,06,29,03,49,14.90
2015,06,29,03,50,14.90
2015,06,29,03,51,14.80
2015,06,29,03,52,14.80
2015,06,29,03,53,14.80
2015,06,29,03,54,14.80
2015,06,29,03,55,14.80
2015,06,29,03,56,14.80
2015,06,29,03,57,14.80
2015,06,29,03,58,14.80
2015,06,29,03,59,14.80
2015,06,29,04,00,14.90
2015,06,29,04,01,14.90
2015,06,29,04,02,14.90
2015,06,29,04,03,14.90
2015,06,29,04,04,14.90
2015,06,29,04,05,14.90
2015,06,29,04,06,14.90
2015,06,29,04,07,14.90
2015,06,29,05,02,14.80
2015,06,29,05,03,14.80
2015,06,29,05,04,14.80
2015,06,29,05,05,14.80
2015,06,29,05,06,14.80
2015,06,29,05,07,14.80
2015,06,29,05,08,14.80
2015,06,29,05,09,14.80
2015,06,29,05,10,14.80
2015,06,29,05,11,14.80
2015,06,29,05,12,14.80
2015,06,29,05,13,14.80
2015,06,29,05,14,14.80
2015,06,29,05,15,14.80
2015,06,29,05,16,14.80
2015,06,29,05,17,14.80
2015,06,29,05,18,14.80
2015,06,29,05,19,14.90
2015,06,29,05,20,14.90
2015,06,29,05,21,14.90
2015,06,29,05,22,14.90
2015,06,29,05,23,14.90
2015,06,29,05,24,14.90
2015,06,29,05,25,14.90
2015,06,29,05,26,14.90
2015,06,29,05,27,14.90
2015,06,29,05,28,14.90
2015,06,29,05,29,14.80
2015,06,29,05,30,14.80
2015,06,29,05,31,14.90
2015,06,29,05,32,14.80
2015,06,29,05,33,14.90
2015,06,29,05,34,14.90
2015,06,29,05,35,14.90
2015,06,29,05,36,14.90
2015,06,29,05,37,14.90
2015,06,29,05,38,14.90
2015,06,29,05,39,14.80
2015,06,29,05,40,14.80
2015,06,29,05,41,14.80
2015,06,29,05,42,14.80
2015,06,29,05,43,14.80
2015,06,29,05,44,14.80
2015,06,29,05,45,14.80
2015,06,29,05,46,14.80
2015,06,29,05,47,14.80
2015,06,29,05,48,14.80
2015,06,29,05,49,14.80
2015,06,29,05,50,14.80
2015,06,29,05,51,14.80
2015,06,29,05,52,14.80
2015,06,29,05,53,14.80
2015,06,29,05,54,14.80
2015,06,29,05,55,14.80
2015,06,29,05,56,14.90
2015,06,29,05,57,14.90
2015,06,29,05,58,14.90
2015,06,29,05,59,14.90
2015,06,29,06,00,14.90
2015,06,29,06,01,14.90
2015,06,29,06,02,14.90
2015,06,29,06,03,14.90
2015,06,29,06,04,14.90
2015,06,29,06,05,14.90
2015,06,29,06,06,14.90
2015,06,29,06,07,14.90
2015,06,29,06,08,14.90
2015,06,29,06,09,14.90
2015,06,29,06,10,14.90
2015,06,29,06,11,14.90
2015,06,29,06,12,14.90
2015,06,29,06,13,14.80
2015,06,29,06,14,14.80
2015,06,29,06,15,14.80
2015,06,29,06,16,14.80
2015,06,29,06,17,14.80
2015,06,29,06,18,14.80
2015,06,29,06,19,14.80
2015,06,29,06,20,14.80
2015,06,29,06,21,14.80
2015,06,29,06,22,14.90
2015,06,29,06,23,14.90
2015,06,29,06,24,14.90
2015,06,29,06,25,14.90
2015,06,29,06,26,14.90
2015,06,29,06,27,14.90
2015,06,29,06,28,14.90
2015,06,29,06,29,14.90
2015,06,29,06,30,14.90
2015,06,29,06,31,14.90
2015,06,29,06,32,14.90
2015,06,29,06,33,14.90
2015,06,29,06,34,14.90
2015,06,29,06,35,14.90
2015,06,29,06,36,14.90
2015,06,29,06,37,14.90
2015,06,29,06,38,14.90
2015,06,29,06,39,14.90
2015,06,29,06,40,14.90
2015,06,29,06,41,14.90
2015,06,29,06,42,14.90
2015,06,29,06,43,14.90
2015,06,29,06,44,15.00
2015,06,29,06,45,15.00
2015,06,29,06,46,15.00
2015,06,29,06,47,15.00
2015,06,29,06,48,15.10
2015,06,29,06,49,15.10
2015,06,29,06,50,15.10
2015,06,29,06,51,15.10
2015,06,29,06,52,15.10
2015,06,29,06,53,15.10
2015,06,29,06,54,15.20
2015,06,29,06,55,15.20
2015,06,29,06,56,15.20
2015,06,29,06,57,15.20
2015,06,29,06,58,15.20
2015,06,29,06,59,15.20
2015,06,29,07,00,15.20
2015,06,29,07,01,15.20
2015,06,29,07,02,15.20
2015,06,29,07,03,15.20
2015,06,29,07,04,15.20
2015,06,29,07,05,15.20
2015,06,29,07,06,15.20
2015,06,29,07,07,15.30
2015,06,29,07,08,15.30
2015,06,29,07,09,15.30
2015,06,29,07,10,15.30
2015,06,29,07,11,15.30
2015,06,29,07,12,15.30
2015,06,29,07,13,15.30
2015,06,29,07,14,15.30
2015,06,29,07,15,15.30
2015,06,29,07,16,15.30
2015,06,29,07,17,15.30
2015,06,29,07,18,15.30
2015,06,29,07,19,15.30
2015,06,29,07,20,15.30
2015,06,29,07,21,15.30
2015,06,29,07,22,15.30
2015,06,29,07,23,15.30
2015,06,29,07,24,15.30
2015,06,29,07,25,15.30
2015,06,29,07,26,15.30
2015,06,29,07,27,15.30
2015,06,29,07,28,15.30
2015,06,29,07,29,15.30
2015,06,29,07,30,15.30
2015,06,29,07,31,15.30
2015,06,29,07,32,15.30
2015,06,29,07,33,15.20
2015,06,29,07,34,15.20
2015,06,29,07,35,15.20
2015,06,29,07,36,15.20
2015,06,29,07,37,15.20
2015,06,29,07,38,15.10
2015,06,29,07,39,15.10
2015,06,29,07,40,15.10
2015,06,29,07,41,15.10
2015,06,29,07,42,15.10
2015,06,29,07,43,15.10
2015,06,29,07,44,15.10
2015,06,29,07,45,15.10
2015,06,29,07,46,15.20
2015,06,29,07,47,15.20
2015,06,29,07,48,15.20
2015,06,29,07,49,15.20
2015,06,29,07,50,15.20
2015,06,29,07,51,15.20
2015,06,29,07,52,15.20
2015,06,29,07,53,15.20
2015,06,29,07,54,15.20
2015,06,29,07,55,15.20
2015,06,29,07,56,15.20
2015,06,29,07,57,15.20
2015,06,29,07,58,15.10
2015,06,29,07,59,15.10
2015,06,29,08,00,15.10
2015,06,29,08,01,15.10
2015,06,29,08,02,15.10
2015,06,29,08,03,15.10
2015,06,29,08,04,15.10
2015,06,29,08,05,15.10
2015,06,29,08,06,15.10
2015,06,29,08,07,15.20
2015,06,29,08,08,15.20
2015,06,29,08,09,15.20
2015,06,29,08,10,15.20
2015,06,29,08,11,15.20
2015,06,29,08,12,15.20
2015,06,29,08,13,15.20
2015,06,29,08,14,15.30
2015,06,29,08,15,15.30
2015,06,29,08,16,15.30
2015,06,29,08,17,15.30
2015,06,29,08,18,15.30
2015,06,29,08,19,15.40
2015,06,29,08,20,15.40
2015,06,29,08,21,15.40
2015,06,29,08,22,15.40
2015,06,29,08,23,15.50
2015,06,29,08,24,15.50
2015,06,29,08,25,15.60
2015,06,29,08,26,15.60
2015,06,29,08,27,15.60
2015,06,29,08,28,15.70
2015,06,29,08,29,15.70
2015,06,29,08,30,15.70
2015,06,29,08,31,15.70
2015,06,29,08,32,15.70
2015,06,29,08,33,15.70
2015,06,29,08,34,15.70
2015,06,29,08,35,15.70
2015,06,29,08,36,15.80
2015,06,29,08,37,15.80
2015,06,29,08,38,15.80
2015,06,29,08,39,15.80
2015,06,29,08,40,15.90
2015,06,29,08,41,15.90
2015,06,29,08,42,16.00
2015,06,29,08,43,16.00
2015,06,29,08,44,16.10
2015,06,29,08,45,16.10
2015,06,29,08,46,16.20
2015,06,29,08,47,16.20
2015,06,29,08,48,16.20
2015,06,29,08,49,16.20
2015,06,29,08,50,16.20
2015,06,29,08,51,16.20
2015,06,29,08,52,16.30
2015,06,29,08,53,16.30
2015,06,29,08,54,16.30
2015,06,29,08,55,16.30
2015,06,29,08,56,16.30
2015,06,29,08,57,16.30
2015,06,29,08,58,16.30
2015,06,29,08,59,16.30
2015,06,29,09,00,16.30
2015,06,29,09,01,16.30
2015,06,29,09,02,16.30
2015,06,29,09,03,16.30
2015,06,29,09,04,16.30
2015,06,29,09,05,16.30
2015,06,29,09,06,16.30
2015,06,29,09,07,16.30
2015,06,29,09,08,16.30
2015,06,29,09,09,16.30
2015,06,29,09,10,16.30
2015,06,29,09,11,16.30
2015,06,29,09,12,16.30
2015,06,29,09,13,16.30
2015,06,29,09,14,16.30
2015,06,29,09,15,16.30
2015,06,29,09,16,16.40
2015,06,29,09,17,16.30
2015,06,29,09,18,16.40
2015,06,29,09,19,16.30
2015,06,29,09,20,16.30
2015,06,29,09,21,16.30
2015,06,29,09,22,16.30
2015,06,29,09,23,16.30
2015,06,29,09,24,16.30
2015,06,29,09,25,16.30
2015,06,29,09,26,16.30
2015,06,29,09,27,16.30
2015,06,29,09,28,16.30
2015,06,29,09,29,16.30
2015,06,29,09,30,16.30
2015,06,29,09,31,16.30
2015,06,29,09,32,16.30
2015,06,29,09,33,16.40
2015,06,29,09,34,16.40
2015,06,29,09,35,16.40
2015,06,29,09,36,16.40
2015,06,29,09,37,16.40
2015,06,29,09,38,16.50
2015,06,29,09,39,16.50
2015,06,29,09,40,16.50
2015,06,29,09,41,16.60
2015,06,29,09,42,16.60
2015,06,29,09,43,16.60
2015,06,29,09,44,16.70
2015,06,29,09,45,16.70
2015,06,29,09,46,16.70
2015,06,29,09,47,16.80
2015,06,29,09,48,16.80
2015,06,29,09,49,16.90
2015,06,29,09,50,16.90
2015,06,29,09,51,16.90
2015,06,29,09,52,16.90
2015,06,29,09,53,16.90
2015,06,29,09,54,16.90
2015,06,29,09,55,16.90
2015,06,29,09,56,16.90
2015,06,29,09,57,17.00
2015,06,29,09,58,17.00
2015,06,29,09,59,17.00
2015,06,29,10,00,17.00
2015,06,29,10,01,17.10
2015,06,29,10,02,17.10
2015,06,29,10,03,17.10
2015,06,29,10,04,17.10
2015,06,29,10,05,17.10
2015,06,29,10,06,17.10
2015,06,29,10,07,17.10
2015,06,29,10,08,17.10
2015,06,29,10,09,17.10
2015,06,29,10,10,17.00
2015,06,29,10,11,17.00
2015,06,29,10,12,17.00
2015,06,29,10,13,17.00
2015,06,29,10,14,17.00
2015,06,29,10,15,17.00
2015,06,29,10,16,17.00
2015,06,29,10,17,17.00
2015,06,29,10,18,17.10
2015,06,29,10,19,17.10
2015,06,29,10,20,17.10
2015,06,29,10,21,17.10
2015,06,29,10,22,17.10
2015,06,29,10,23,17.10
2015,06,29,10,24,17.10
2015,06,29,10,25,17.20
2015,06,29,10,26,17.20
2015,06,29,10,27,17.20
2015,06,29,10,28,17.20
2015,06,29,10,29,17.20
2015,06,29,10,30,17.30
2015,06,29,10,31,17.30
2015,06,29,10,32,17.30
2015,06,29,10,33,17.30
2015,06,29,10,34,17.40
2015,06,29,10,35,17.50
2015,06,29,10,36,17.60
2015,06,29,10,37,17.70
2015,06,29,10,38,17.80
2015,06,29,10,39,18.00
2015,06,29,10,40,18.10
2015,06,29,10,41,18.20
2015,06,29,10,42,18.20
2015,06,29,10,43,18.20
2015,06,29,10,44,18.20
2015,06,29,10,45,18.20
2015,06,29,10,46,18.20
2015,06,29,10,47,18.20
2015,06,29,10,48,18.10
2015,06,29,10,49,18.10
2015,06,29,10,50,18.10
2015,06,29,10,51,18.10
2015,06,29,10,52,18.10
2015,06,29,10,53,18.10
2015,06,29,10,54,18.10
2015,06,29,10,55,18.10
2015,06,29,10,56,18.00
2015,06,29,10,57,17.90
2015,06,29,10,58,17.90
2015,06,29,10,59,17.80
2015,06,29,11,00,17.80
2015,06,29,11,01,17.80
2015,06,29,11,02,17.70
2015,06,29,11,03,17.70
2015,06,29,11,04,17.70
2015,06,29,11,05,17.60
2015,06,29,11,06,17.50
2015,06,29,11,07,17.40
2015,06,29,11,08,17.30
2015,06,29,11,09,17.20
2015,06,29,11,10,17.10
2015,06,29,11,11,17.10
2015,06,29,11,12,17.00
2015,06,29,11,13,17.00
2015,06,29,11,14,16.90
2015,06,29,11,15,16.90
2015,06,29,11,16,16.90
2015,06,29,11,17,17.00
2015,06,29,11,18,17.00
2015,06,29,11,19,17.00
2015,06,29,11,20,17.00
2015,06,29,11,21,17.10
2015,06,29,11,22,17.10
2015,06,29,11,23,17.10
2015,06,29,11,24,17.10
2015,06,29,11,25,17.10
2015,06,29,11,26,17.10
2015,06,29,11,27,17.10
2015,06,29,11,28,17.10
2015,06,29,11,29,17.10
2015,06,29,11,30,17.20
2015,06,29,11,31,17.20
2015,06,29,11,32,17.20
2015,06,29,11,33,17.30
2015,06,29,11,34,17.30
2015,06,29,11,35,17.40
2015,06,29,11,36,17.50
2015,06,29,11,37,17.60
2015,06,29,11,38,17.70
2015,06,29,11,39,17.80
2015,06,29,11,40,17.80
2015,06,29,11,41,17.90
2015,06,29,11,42,18.00
2015,06,29,11,43,18.00
2015,06,29,11,44,18.10
2015,06,29,11,45,18.10
2015,06,29,11,46,18.20
2015,06,29,11,47,18.20
2015,06,29,11,48,18.30
2015,06,29,11,49,18.30
2015,06,29,11,50,18.30
2015,06,29,11,51,18.40
2015,06,29,11,52,18.40
2015,06,29,11,53,18.40
2015,06,29,11,54,18.50
2015,06,29,11,55,18.50
2015,06,29,11,56,18.40
2015,06,29,11,57,18.40
2015,06,29,11,58,18.40
2015,06,29,11,59,18.40
2015,06,29,12,00,18.40
2015,06,29,12,01,18.50
2015,06,29,12,02,18.50
2015,06,29,12,03,18.50
2015,06,29,12,04,18.60
2015,06,29,12,05,18.60
2015,06,29,12,06,18.70
2015,06,29,12,07,18.70
2015,06,29,12,08,18.80
2015,06,29,12,09,18.90
2015,06,29,12,10,19.00
2015,06,29,12,11,19.20
2015,06,29,12,12,19.40
2015,06,29,12,13,19.50
2015,06,29,12,14,19.60
2015,06,29,12,15,19.70
2015,06,29,12,16,19.80
2015,06,29,12,17,19.80
2015,06,29,12,18,19.90
2015,06,29,12,19,19.90
2015,06,29,12,20,19.90
2015,06,29,12,21,19.80
2015,06,29,12,22,19.70
2015,06,29,12,23,19.70
2015,06,29,12,24,19.60
2015,06,29,12,25,19.60
2015,06,29,12,26,19.50
2015,06,29,12,27,19.50
2015,06,29,12,28,19.40
2015,06,29,12,29,19.40
2015,06,29,12,30,19.40
2015,06,29,12,31,19.30
2015,06,29,12,32,19.30
2015,06,29,12,33,19.30
2015,06,29,12,34,19.30
2015,06,29,12,35,19.30
2015,06,29,12,36,19.30
2015,06,29,12,37,19.30
2015,06,29,12,38,19.30
2015,06,29,12,39,19.30
2015,06,29,12,40,19.30
2015,06,29,12,41,19.30
2015,06,29,12,42,19.30
2015,06,29,12,43,19.40
2015,06,29,12,44,19.60
2015,06,29,12,45,19.70
2015,06,29,12,46,19.70
2015,06,29,12,47,19.80
2015,06,29,12,48,19.80
2015,06,29,12,49,19.80
2015,06,29,12,50,19.80
2015,06,29,12,51,19.80
2015,06,29,12,52,19.80
2015,06,29,12,53,19.80
2015,06,29,12,54,19.80
2015,06,29,12,55,19.80
2015,06,29,12,56,19.70
2015,06,29,12,57,19.60
2015,06,29,12,58,19.60
2015,06,29,12,59,19.60
2015,06,29,13,00,19.50
2015,06,29,13,01,19.50
2015,06,29,13,02,19.50
2015,06,29,13,03,19.50
2015,06,29,13,04,19.50
2015,06,29,13,05,19.50
2015,06,29,13,06,19.40
2015,06,29,13,07,19.30
2015,06,29,13,08,19.30
2015,06,29,13,09,19.30
2015,06,29,13,10,19.30
2015,06,29,13,11,19.40
2015,06,29,13,12,19.40
2015,06,29,13,13,19.40
2015,06,29,13,14,19.50
2015,06,29,13,15,19.60
2015,06,29,13,16,19.60
2015,06,29,13,17,19.60
2015,06,29,13,18,19.60
2015,06,29,13,19,19.60
2015,06,29,13,20,19.60
2015,06,29,13,21,19.60
2015,06,29,13,22,19.60
2015,06,29,13,23,19.60
2015,06,29,13,24,19.60
2015,06,29,13,25,19.70
2015,06,29,13,26,19.70
2015,06,29,13,27,19.70
2015,06,29,13,28,19.70
2015,06,29,13,29,19.70
2015,06,29,13,30,19.80
2015,06,29,13,31,19.80
2015,06,29,13,32,19.90
2015,06,29,13,33,19.90
2015,06,29,13,34,20.00
2015,06,29,13,35,20.00
2015,06,29,13,36,20.00
2015,06,29,13,37,20.10
2015,06,29,13,38,20.10
2015,06,29,13,39,20.20
2015,06,29,13,40,20.20
2015,06,29,13,41,20.30
2015,06,29,13,42,20.40
2015,06,29,13,43,20.40
2015,06,29,13,44,20.50
2015,06,29,13,45,20.60
2015,06,29,13,46,20.70
2015,06,29,13,47,20.80
2015,06,29,13,48,20.90
2015,06,29,13,49,20.90
2015,06,29,13,50,20.90
2015,06,29,13,51,20.90
2015,06,29,13,52,20.80
2015,06,29,13,53,20.80
2015,06,29,13,54,20.70
2015,06,29,13,55,20.70
2015,06,29,13,56,20.70
2015,06,29,13,57,20.60
2015,06,29,13,58,20.60
2015,06,29,13,59,20.60
2015,06,29,14,00,20.60
2015,06,29,14,01,20.60
2015,06,29,14,02,20.60
2015,06,29,14,03,20.60
2015,06,29,14,04,20.70
2015,06,29,14,05,20.70
2015,06,29,14,06,20.80
2015,06,29,14,07,20.90
2015,06,29,14,08,20.90
2015,06,29,14,09,21.00
2015,06,29,14,10,21.10
2015,06,29,14,11,21.10
2015,06,29,14,12,21.20
2015,06,29,14,13,21.20
2015,06,29,14,14,21.20
2015,06,29,14,15,21.20
2015,06,29,14,16,21.20
2015,06,29,14,17,21.30
2015,06,29,14,18,21.30
2015,06,29,14,19,21.40
2015,06,29,14,20,21.40
2015,06,29,14,21,21.40
2015,06,29,14,22,21.40
2015,06,29,14,23,21.40
2015,06,29,14,24,21.40
2015,06,29,14,25,21.40
2015,06,29,14,26,21.30
2015,06,29,14,27,21.30
2015,06,29,14,28,21.20
2015,06,29,14,29,21.20
2015,06,29,14,30,21.10
2015,06,29,14,31,21.00
2015,06,29,14,32,20.90
2015,06,29,14,33,20.90
2015,06,29,14,34,21.00
2015,06,29,14,35,21.00
2015,06,29,14,36,21.10
2015,06,29,14,37,21.20
2015,06,29,14,38,21.30
2015,06,29,14,39,21.50
2015,06,29,14,40,21.60
2015,06,29,14,41,21.70
2015,06,29,14,42,21.80
2015,06,29,14,43,22.00
2015,06,29,14,44,22.10
2015,06,29,14,45,22.30
2015,06,29,14,46,22.40
2015,06,29,14,47,22.50
2015,06,29,14,48,22.50
2015,06,29,14,49,22.50
2015,06,29,14,50,22.60
2015,06,29,14,51,22.60
2015,06,29,14,52,22.70
2015,06,29,14,53,22.70
2015,06,29,14,54,22.70
2015,06,29,14,55,22.60
2015,06,29,14,56,22.50
2015,06,29,14,57,22.40
2015,06,29,14,58,22.40
2015,06,29,14,59,22.30
2015,06,29,15,00,22.30
2015,06,29,15,01,22.20
2015,06,29,15,02,22.10
2015,06,29,15,03,22.00
2015,06,29,15,04,21.90
2015,06,29,15,05,21.90
2015,06,29,15,06,21.90
2015,06,29,15,07,21.90
2015,06,29,15,08,21.80
2015,06,29,15,09,21.80
2015,06,29,15,10,21.80
2015,06,29,15,11,21.80
2015,06,29,15,12,21.80
2015,06,29,15,13,21.80
2015,06,29,15,14,21.70
2015,06,29,15,15,21.70
2015,06,29,15,16,21.70
2015,06,29,15,17,21.60
2015,06,29,15,18,21.60
2015,06,29,15,19,21.60
2015,06,29,15,20,21.60
2015,06,29,15,21,21.70
2015,06,29,15,22,21.70
2015,06,29,15,23,21.70
2015,06,29,15,24,21.60
2015,06,29,15,25,21.60
2015,06,29,15,26,21.60
2015,06,29,15,27,21.60
2015,06,29,15,28,21.60
2015,06,29,15,29,21.60
2015,06,29,15,30,21.60
2015,06,29,15,31,21.70
2015,06,29,15,32,21.70
2015,06,29,15,33,21.70
2015,06,29,15,34,21.70
2015,06,29,15,35,21.80
2015,06,29,15,36,21.80
2015,06,29,15,37,21.80
2015,06,29,15,38,21.90
2015,06,29,15,39,21.90
2015,06,29,15,40,22.00
2015,06,29,15,41,22.10
2015,06,29,15,42,22.10
2015,06,29,15,43,22.10
2015,06,29,15,44,22.20
2015,06,29,15,45,22.20
2015,06,29,15,46,22.10
2015,06,29,15,47,22.10
2015,06,29,15,48,22.10
2015,06,29,15,49,22.10
2015,06,29,15,50,22.10
2015,06,29,15,51,22.10
2015,06,29,15,52,22.10
2015,06,29,15,53,22.10
2015,06,29,15,54,22.00
2015,06,29,15,55,22.00
2015,06,29,15,56,21.90
2015,06,29,15,57,22.00
2015,06,29,15,58,22.00
2015,06,29,15,59,22.10
2015,06,29,16,00,22.10
2015,06,29,16,01,22.10
2015,06,29,16,02,22.20
2015,06,29,16,03,22.30
2015,06,29,16,04,22.40
2015,06,29,16,05,22.40
2015,06,29,16,06,22.40
2015,06,29,16,07,22.50
2015,06,29,16,08,22.50
2015,06,29,16,09,22.50
2015,06,29,16,10,22.60
2015,06,29,16,11,22.80
2015,06,29,16,12,23.00
2015,06,29,16,13,23.10
2015,06,29,16,14,23.20
2015,06,29,16,15,23.30
2015,06,29,16,16,23.40
2015,06,29,16,17,23.50
2015,06,29,16,18,23.60
2015,06,29,16,19,23.60
2015,06,29,16,20,23.70
2015,06,29,16,21,23.70
2015,06,29,16,22,23.80
2015,06,29,16,23,23.80
2015,06,29,16,24,23.90
2015,06,29,16,25,23.90
2015,06,29,16,26,23.90
2015,06,29,16,27,23.90
2015,06,29,16,28,23.80
2015,06,29,16,29,23.70
2015,06,29,16,30,23.70
2015,06,29,16,31,23.70
2015,06,29,16,32,23.70
2015,06,29,16,33,23.80
2015,06,29,16,34,23.80
2015,06,29,16,35,23.80
2015,06,29,16,36,23.80
2015,06,29,16,37,23.90
2015,06,29,16,38,23.90
2015,06,29,16,39,23.90
2015,06,29,16,40,23.90
2015,06,29,16,41,23.90
2015,06,29,16,42,23.90
2015,06,29,16,43,23.90
2015,06,29,16,44,24.00
2015,06,29,16,45,24.00
2015,06,29,16,46,23.80
2015,06,29,16,47,23.60
2015,06,29,16,48,23.30
2015,06,29,16,49,23.10
2015,06,29,16,50,23.00
2015,06,29,16,51,22.90
2015,06,29,16,52,22.80
2015,06,29,16,53,22.70
2015,06,29,16,54,22.70
2015,06,29,16,55,22.80
2015,06,29,16,56,22.80
2015,06,29,16,57,22.80
2015,06,29,16,58,22.90
2015,06,29,16,59,22.90
2015,06,29,17,00,22.90
2015,06,29,17,01,22.80
2015,06,29,17,02,22.80
2015,06,29,17,03,22.80
2015,06,29,17,04,22.80
2015,06,29,17,05,22.80
2015,06,29,17,06,22.90
2015,06,29,17,07,22.90
2015,06,29,17,08,22.90
2015,06,29,17,09,22.90
2015,06,29,17,10,22.90
2015,06,29,17,11,22.90
2015,06,29,17,12,22.90
2015,06,29,17,13,22.80
2015,06,29,17,14,22.80
2015,06,29,17,15,22.80
2015,06,29,17,16,22.70
2015,06,29,17,17,22.70
2015,06,29,17,18,22.70
2015,06,29,17,19,22.70
2015,06,29,17,20,22.70
2015,06,29,17,21,22.70
2015,06,29,17,22,22.70
2015,06,29,17,23,22.70
2015,06,29,17,24,22.70
2015,06,29,17,25,22.80
2015,06,29,17,26,22.80
2015,06,29,17,27,22.90
2015,06,29,17,28,23.00
2015,06,29,17,29,23.10
2015,06,29,17,30,23.20
2015,06,29,17,31,23.30
2015,06,29,17,32,23.40
2015,06,29,17,33,23.40
2015,06,29,17,34,23.40
2015,06,29,17,35,23.40
2015,06,29,17,36,23.40
2015,06,29,17,37,23.40
2015,06,29,17,38,23.40
2015,06,29,17,39,23.30
2015,06,29,17,40,23.30
2015,06,29,17,41,23.30
2015,06,29,17,42,23.30
2015,06,29,17,43,23.20
2015,06,29,17,44,23.20
2015,06,29,17,45,23.20
2015,06,29,17,46,23.20
2015,06,29,17,47,23.20
2015,06,29,17,48,23.20
2015,06,29,17,49,23.20
2015,06,29,17,50,23.20
2015,06,29,17,51,23.20
2015,06,29,17,52,23.20
2015,06,29,17,53,23.20
2015,06,29,17,54,23.20
2015,06,29,17,55,23.20
2015,06,29,17,56,23.10
2015,06,29,17,57,23.10
2015,06,29,17,58,23.10
2015,06,29,17,59,23.10
2015,06,29,18,00,23.20
2015,06,29,18,01,23.20
2015,06,29,18,02,23.30
2015,06,29,18,03,23.40
2015,06,29,18,04,23.50
2015,06,29,18,05,23.60
2015,06,29,18,06,23.70
2015,06,29,18,07,23.80
2015,06,29,18,08,23.80
2015,06,29,18,09,23.90
2015,06,29,18,10,23.90
2015,06,29,18,11,24.00
2015,06,29,18,12,24.10
2015,06,29,18,13,24.20